Regional Weather Roundup
Issued by NWS Cleveland, OH

Home | Current Version | Previous Version | Graphics & Text | Print | Product List | Glossary On
Versions: 1 2 3 4 5 6 7 8 9 10 11 12 13 14 15 16 17 18 19 20 21 22 23 24 25 26 27 28 29 30 31 32 33 34 35 36 37 38 39 40 41 42 43 44 45 46 47 48 49 50
000
ASUS41 KCLE 310110
RWRCLE
OHIO REGIONAL WEATHER ROUNDUP
NATIONAL WEATHER SERVICE WILMINGTON, OH
900 PM EDT WED JUL 30 2014

NOTE: "FAIR" INDICATES FEW OR NO CLOUDS BELOW 12,000 FEET WITH NO
SIGNIFICANT WEATHER AND/OR OBSTRUCTIONS TO VISIBILITY.

OHZ001>008-015>018-024>027-034-035-043-044-310200-
   NORTHWEST OHIO

CITY           SKY/WX    TMP DP  RH WIND       PRES   REMARKS
DEFIANCE       CLEAR     72  55  55 W3        30.00R
FINDLAY        CLEAR     69  58  67 SW7       29.99R
TOLEDO EXPRESS CLEAR     63  55  75 CALM      29.99R
TOLEDO METCALF MOCLDY    64  58  80 SE5       30.00R
LIMA           CLEAR     70  59  68 SW5       30.01S
$$

OHZ009>014-019>023-028>033-038-089-310200-
   NORTHEAST OHIO

CITY           SKY/WX    TMP DP  RH WIND       PRES   REMARKS
CLE-HOPKINS    MOCLDY    65  58  78 S5        30.02R
CLE-LAKEFRONT  MOCLDY    68  58  70 S10       29.98S
CUY CO. ARPT   MOCLDY    68  61  77 SW7       30.01R
LORAIN-ELYRIA  MOCLDY    68  58  70 S8        30.01R
ASHTABULA      CLEAR     62  57  83 CALM      30.02R
AKRON-CANTON   MOCLDY    61  57  87 CALM      30.02S
WOOSTER        PTCLDY    60  58  92 S5        30.03S
MANSFIELD      PTCLDY    65  61  87 S3        30.02S
YOUNGSTOWN     CLOUDY    64  59  83 SW5       30.02S
$$

OHZ042-051>053-060>062-070>072-077>081-310200-
  SOUTHWEST OHIO

CITY           SKY/WX    TMP DP  RH WIND       PRES   REMARKS
CINC-COVINGTON MOCLDY    71  60  68 CALM      30.06R
CINC-LUNKEN    MOCLDY    73  60  63 W7        30.05R
HAMILTON       CLOUDY    68  63  84 CALM      30.05S
DAYTON         PTCLDY    69  60  73 W9        30.05R
WRIGHT-PAT AFB CLEAR     66  61  82 SW8       30.03S
DAYTON GENERAL MOCLDY    72  58  61 W7        30.04S
WILMINGTON     MOCLDY    64  61  90 S3        30.06R
$$

OHZ036-037-039>041-045>050-054>059-063>069-073>076-082>088-310200-
  CENTRAL AND SOUTHEAST OHIO

CITY           SKY/WX    TMP DP  RH WIND       PRES   REMARKS
COLUMBUS       PTCLDY    70  59  68 S5        30.03R
OSU AIRPORT    PTCLDY    67  60  78 SW7       30.03R
BOLTON FIELD   MOCLDY    64  62  93 SW3       30.04S
RICKENBACK AFB PTCLDY    66  57  72 S6        30.03F
NEWARK         PTCLDY    67  59  75 SW7       30.04R
MARION         PTCLDY    70  57  63 W5        30.02S
LANCASTER      PTCLDY    65  59  81 S5        30.05R
ZANESVILLE     MOCLDY    65  60  84 S6        30.04S
NEW PHILLY     MOCLDY    63  61  93 CALM      30.04S
$$



USA.gov is the U.S. government's official web portal to all federal, state and local government web resources and services.